Powrót do katalogu

COSMOS 1104

AktywnyNawigacjaPO
NORAD 11378·PAYLOAD·🇷🇺 Russia

Wystrzelony May 31, 1979 z Plesetsk Cosmodrome

Loading…

Następne Przeloty (najbliższe 24 godziny)

TLE

ŚwieżeSource: Space-Track

Epoka: Sep 14, 2026, 13:19 UTC

1 11378U 79046A   26257.55503435  .00000056  00000-0  42561-4 0  9991
2 11378  82.9511 354.2925 0031692 317.7851  53.0707 13.76000976373869

Śledź COSMOS 1104 w czasie rzeczywistym z AllMySat

Download on the App Store